• In Spain
  • List of Countries
  • For 7 days
  • Water Temperature
  • Satellite Maps
  • Weather Map
  • Weather Widgets
  • user-avatar
    Login

    Hourly Weather Sequeira

    Today, 20 September, Thursday

    Time Temperature Precipitation Wind Pressure Humidity
    00:00 +16°C° 0 mm 0 mps 692 mmHg 51%
    01:00 +16°C° 0 mm 0 mps 692 mmHg 51%
    02:00 +18°C° 0 mm 1 mps 692 mmHg 51%
    03:00 +16°C° 0 mm 1 mps 691 mmHg 51%
    04:00 +16°C° 0 mm 1 mps 691 mmHg 51%
    05:00 +15°C° 0 mm 0 mps 691 mmHg 51%
    06:00 +14°C° 0 mm 0 mps 691 mmHg 51%
    07:00 +17°C° 0 mm 0 mps 692 mmHg 44%
    08:00 +22°C° 0 mm 1 mps 692 mmHg 38%
    09:00 +24°C° 0 mm 1 mps 693 mmHg 31%
    10:00 +26°C° 0 mm 2 mps 693 mmHg 29%
    11:00 +28°C° 0 mm 2 mps 693 mmHg 27%
    12:00 +29°C° 0 mm 3 mps 694 mmHg 27%
    13:00 +29°C° 0 mm 3 mps 693 mmHg 26%
    14:00 +30°C° 0 mm 3 mps 693 mmHg 26%
    15:00 +30°C° 0 mm 4 mps 693 mmHg 26%
    16:00 +29°C° 0 mm 3 mps 692 mmHg 29%
    17:00 +27°C° 0 mm 3 mps 692 mmHg 32%
    18:00 +26°C° 0 mm 3 mps 692 mmHg 35%
    19:00 +24°C° 0 mm 2 mps 691 mmHg 41%
    20:00 +21°C° 0 mm 2 mps 691 mmHg 47%
    21:00 +19°C° 0 mm 2 mps 691 mmHg 54%
    22:00 +18°C° 0 mm 2 mps 691 mmHg 58%
    23:00 +18°C° 0 mm 1 mps 691 mmHg 61%

    Tomorrow, 21 September, Friday

    Time Temperature Precipitation Wind Pressure Humidity
    00:00 +16°C° 0 mm 1 mps 691 mmHg 65%
    01:00 +16°C° 0 mm 1 mps 691 mmHg 66%
    02:00 +15°C° 0 mm 1 mps 691 mmHg 67%
    03:00 +15°C° 0 mm 1 mps 691 mmHg 68%
    04:00 +14°C° 0 mm 1 mps 691 mmHg 68%
    05:00 +14°C° 0 mm 1 mps 691 mmHg 69%
    06:00 +14°C° 0 mm 1 mps 691 mmHg 70%
    07:00 +16°C° 0 mm 1 mps 691 mmHg 61%
    08:00 +19°C° 0 mm 1 mps 692 mmHg 52%
    09:00 +22°C° 0 mm 1 mps 693 mmHg 44%
    10:00 +24°C° 0 mm 1 mps 693 mmHg 37%
    11:00 +26°C° 0 mm 1 mps 693 mmHg 31%
    12:00 +28°C° 0 mm 1 mps 694 mmHg 25%
    13:00 +29°C° 0 mm 2 mps 693 mmHg 23%
    14:00 +29°C° 0 mm 2 mps 693 mmHg 22%
    15:00 +30°C° 0 mm 2 mps 693 mmHg 20%
    16:00 +28°C° 0 mm 2 mps 692 mmHg 24%
    17:00 +27°C° 0 mm 2 mps 692 mmHg 27%
    18:00 +26°C° 0 mm 2 mps 692 mmHg 30%
    19:00 +24°C° 0 mm 2 mps 692 mmHg 35%
    20:00 +22°C° 0 mm 1 mps 692 mmHg 41%
    21:00 +20°C° 0 mm 1 mps 692 mmHg 46%
    22:00 +20°C° 0 mm 1 mps 692 mmHg 48%
    23:00 +19°C° 0 mm 1 mps 692 mmHg 49%

    Day after tomorrow, 22 September, Saturday

    Time Temperature Precipitation Wind Pressure Humidity
    00:00 +19°C° 0 mm 1 mps 692 mmHg 51%
    01:00 +19°C° 0 mm 1 mps 692 mmHg 54%
    02:00 +18°C° 0 mm 1 mps 692 mmHg 57%
    03:00 +18°C° 0 mm 1 mps 692 mmHg 61%
    04:00 +18°C° 0 mm 1 mps 692 mmHg 64%
    05:00 +16°C° 0 mm 1 mps 692 mmHg 67%
    06:00 +16°C° 0 mm 1 mps 692 mmHg 70%
    07:00 +19°C° 0 mm 1 mps 693 mmHg 61%
    08:00 +22°C° 0 mm 1 mps 694 mmHg 53%
    09:00 +24°C° 0 mm 1 mps 694 mmHg 45%
    10:00 +26°C° 0 mm 1 mps 695 mmHg 38%
    11:00 +29°C° 0 mm 1 mps 695 mmHg 31%
    12:00 +31°C° 0 mm 1 mps 696 mmHg 24%
    13:00 +32°C° 0 mm 1 mps 695 mmHg 23%
    14:00 +32°C° 0 mm 1 mps 695 mmHg 21%
    15:00 +32°C° 0 mm 2 mps 695 mmHg 20%
    16:00 +31°C° 0 mm 2 mps 694 mmHg 23%
    17:00 +29°C° 0 mm 1 mps 694 mmHg 27%
    18:00 +28°C° 0 mm 1 mps 693 mmHg 30%
    19:00 +26°C° 0 mm 1 mps 694 mmHg 33%
    20:00 +24°C° 0 mm 1 mps 694 mmHg 35%
    21:00 +23°C° 0 mm 1 mps 694 mmHg 38%
    22:00 +22°C° 0 mm 1 mps 694 mmHg 38%
    23:00 +22°C° 0 mm 1 mps 694 mmHg 39%

    23 September, Sunday

    Time Temperature Precipitation Wind Pressure Humidity
    00:00 +22°C° 0 mm 1 mps 694 mmHg 39%
    01:00 +21°C° 0 mm 1 mps 693 mmHg 39%
    02:00 +21°C° 0 mm 1 mps 693 mmHg 39%
    03:00 +20°C° 0 mm 1 mps 693 mmHg 39%
    04:00 +20°C° 0 mm 1 mps 693 mmHg 40%
    05:00 +20°C° 0 mm 1 mps 693 mmHg 41%
    06:00 +19°C° 0 mm 1 mps 693 mmHg 42%
    07:00 +22°C° 0 mm 1 mps 693 mmHg 37%
    08:00 +24°C° 0 mm 1 mps 694 mmHg 32%
    09:00 +27°C° 0 mm 1 mps 695 mmHg 27%
    10:00 +29°C° 0 mm 1 mps 695 mmHg 25%
    11:00 +31°C° 0 mm 1 mps 696 mmHg 22%
    12:00 +33°C° 0 mm 1 mps 696 mmHg 19%
    13:00 +33°C° 0 mm 1 mps 696 mmHg 18%
    14:00 +34°C° 0 mm 2 mps 695 mmHg 18%
    15:00 +34°C° 0 mm 2 mps 695 mmHg 17%
    16:00 +32°C° 0 mm 2 mps 694 mmHg 20%
    17:00 +30°C° 0 mm 2 mps 694 mmHg 24%
    18:00 +29°C° 0 mm 2 mps 694 mmHg 27%
    19:00 +27°C° 0 mm 2 mps 694 mmHg 30%
    20:00 +25°C° 0 mm 2 mps 694 mmHg 34%
    21:00 +24°C° 0 mm 2 mps 694 mmHg 38%
    22:00 +23°C° 0 mm 2 mps 693 mmHg 38%
    23:00 +23°C° 0 mm 2 mps 693 mmHg 39%

    24 September, Monday

    Time Temperature Precipitation Wind Pressure Humidity
    00:00 +21°C° 0 mm 2 mps 693 mmHg 39%
    01:00 +21°C° 0 mm 2 mps 693 mmHg 41%
    02:00 +20°C° 0 mm 2 mps 693 mmHg 43%
    03:00 +20°C° 0 mm 2 mps 693 mmHg 44%
    04:00 +19°C° 0 mm 2 mps 692 mmHg 48%
    05:00 +19°C° 0 mm 2 mps 692 mmHg 51%
    06:00 +18°C° 0 mm 2 mps 692 mmHg 55%
    07:00 +20°C° 0 mm 2 mps 693 mmHg 51%
    08:00 +23°C° 0 mm 2 mps 693 mmHg 47%
    09:00 +25°C° 0 mm 2 mps 694 mmHg 42%
    10:00 +27°C° 0 mm 2 mps 694 mmHg 37%
    11:00 +29°C° 0 mm 2 mps 694 mmHg 31%
    12:00 +32°C° 0 mm 2 mps 695 mmHg 25%
    13:00 +32°C° 0 mm 2 mps 694 mmHg 24%
    14:00 +34°C° 0 mm 2 mps 694 mmHg 22%
    15:00 +35°C° 0 mm 2 mps 693 mmHg 20%
    16:00 +32°C° 0 mm 2 mps 693 mmHg 23%
    17:00 +31°C° 0 mm 2 mps 692 mmHg 26%
    18:00 +29°C° 0 mm 2 mps 692 mmHg 28%
    19:00 +28°C° 0 mm 2 mps 692 mmHg 31%
    20:00 +26°C° 0 mm 2 mps 692 mmHg 34%
    21:00 +25°C° 0 mm 2 mps 692 mmHg 36%
    22:00 +24°C° 0 mm 2 mps 692 mmHg 38%
    23:00 +23°C° 0 mm 2 mps 692 mmHg 41%

    25 September, Tuesday

    Time Temperature Precipitation Wind Pressure Humidity
    00:00 +22°C° 0 mm 3 mps 692 mmHg 43%
    01:00 +21°C° 0 mm 3 mps 691 mmHg 48%
    02:00 +20°C° 0 mm 3 mps 691 mmHg 53%
    03:00 +19°C° 0 mm 3 mps 691 mmHg 58%
    04:00 +19°C° 0 mm 3 mps 691 mmHg 62%
    05:00 +18°C° 0 mm 3 mps 691 mmHg 65%
    06:00 +17°C° 0 mm 3 mps 691 mmHg 68%
    07:00 +19°C° 0 mm 2 mps 691 mmHg 61%
    08:00 +21°C° 0 mm 2 mps 692 mmHg 55%
    09:00 +23°C° 0 mm 2 mps 692 mmHg 49%
    10:00 +26°C° 0 mm 2 mps 693 mmHg 42%
    11:00 +28°C° 0 mm 2 mps 693 mmHg 35%
    12:00 +31°C° 0 mm 2 mps 693 mmHg 28%
    13:00 +32°C° 0 mm 2 mps 693 mmHg 25%
    14:00 +33°C° 0 mm 1 mps 693 mmHg 23%
    15:00 +33°C° 0 mm 1 mps 692 mmHg 21%
    16:00 +32°C° 0 mm 1 mps 692 mmHg 23%
    17:00 +30°C° 0 mm 1 mps 692 mmHg 26%
    18:00 +29°C° 0 mm 1 mps 692 mmHg 29%
    19:00 +27°C° 0 mm 1 mps 692 mmHg 32%
    20:00 +25°C° 0 mm 1 mps 692 mmHg 35%
    21:00 +24°C° 0 mm 1 mps 692 mmHg 39%
    22:00 +23°C° 0 mm 1 mps 692 mmHg 40%
    23:00 +23°C° 0 mm 1 mps 692 mmHg 41%
    Show more